[[{"header":{"parameterUnit":"m.s-1","parameterCategory":1,"la1":30.2991,"la2":30.254,"lo1":-89.0895,"lo2":-89.0444,"dy":0.0017,"dx":0.0017,"nx":28,"ny":28,"refTime":"2025-05-19T21:00:00:Z","depth":0,"parameterNumber":2,"parameterNumberName":"U-component_of_WINDS"},"data":[0,0,0,0,0,0,0,0,0,0,0,0,0,0,0,0,0,0,0,0,0,0,0,0,0,0,0,0,0,0,0,0,0,0,0,0,0,0,0,0,0,0,0,0,0,0,0,0,0,0,0,0,0,0,0,0,0,0,0.8519,0.8519,0,0.8506,0.8506,0.8506,0.8431,0.8429,0.8428,0.8426,0.8418,0.842,0.8421,0,0,0,0,0,0,0,0,0,0,0,0,0,0.8484,0.8485,0.8519,0.8519,0.8519,0.8506,0.8506,0.8506,0.8431,0.8429,0.8427,0.8425,0.8418,0.8419,0.8421,0,0,0,0,0,0,0,0,0,0,0,0,0,0.8488,0.8486,0.8519,0.848,0.8476,0.8506,0.8506,0.8506,0.8432,0.8429,0.8426,0.8424,0.8417,0.8419,0.8421,0.849,0,0,0.8428,0.8429,0,0,0,0,0,0,0,0,0.8488,0.849,0.8486,0.8483,0.8479,0.8467,0.8491,0.8501,0.8433,0.8449,0.8426,0.8423,0.8437,0.8437,0.8441,0.8489,0.8489,0.8428,0.843,0.8431,0.8431,0,0,0,0,0,0,0,0.8488,0.849,0.8514,0.8486,0.8482,0.8465,0.8462,0.8492,0.8459,0.8447,0.8442,0.8441,0.8435,0.8439,0.844,0.8489,0.8428,0.843,0.8432,0.8433,0.8593,0.8596,0,0,0,0,0,0,0.8493,0.849,0.8514,0.8514,0.8477,0.8468,0.8465,0.8474,0.8458,0.8453,0.8443,0.8438,0.8437,0.8438,0.844,0.8519,0.8431,0.8433,0.8434,0.859,0.8593,0.8597,0,0,0,0,0,0,0.8492,0.8495,0.8515,0.85,0.8502,0.8471,0.8482,0.8475,0.8479,0.8455,0.8449,0.8454,0.8435,0.8437,0.8477,0.8518,0.8434,0.8436,0.8586,0.8591,0.8595,0.8678,0,0,0,0,0,0,0.8491,0.8496,0.852,0.8501,0.8503,0.8552,0.8484,0.8477,0.8483,0.8475,0.8463,0.8459,0.8433,0.8475,0.848,0.8519,0.8438,0.8583,0.8588,0.8594,0.8672,0.8685,0.8696,0,0,0,0,0,0.849,0.8545,0.8522,0.8525,0.8532,0.8554,0.8555,0.8522,0.8486,0.8511,0.8496,0.8459,0.8512,0.8479,0.8485,0.8526,0.858,0.8587,0.8593,0.8666,0.8682,0.8696,0,0,0,0,0,0,0.8571,0.8542,0.8516,0.8565,0.8563,0.8541,0.8572,0.854,0.8548,0.8541,0.8502,0.85,0.8547,0.854,0.8504,0.8591,0.854,0.8548,0.8594,0.8609,0.8621,0.8622,0.8439,0,0,0,0,0,0.8594,0.8613,0.8587,0.8633,0.8633,0.8603,0.8611,0.8586,0.8582,0.8581,0.8568,0.8568,0.8584,0.8596,0.8609,0.867,0.8667,0.8701,0.8713,0.8723,0.8731,0.8763,0.8778,0.8618,0.8618,0.8618,0,0,0.8643,0.863,0.8644,0.8649,0.8644,0.8666,0.8603,0.8628,0.8644,0.8586,0.8623,0.8614,0.861,0.8661,0.8683,0.8657,0.8774,0.8731,0.874,0.8742,0.8772,0.8787,0.88,0.8623,0.8622,0.8621,0,0,0.8743,0.8734,0.8772,0.8768,0.876,0.874,0.8749,0.8732,0.8724,0.876,0.8716,0.8736,0.8765,0.8764,0.8768,0.8868,0.8835,0.8874,0.8938,0.897,0.8983,0.8994,0.903,0.9044,0.8881,0.8882,0.8882,0,0.8806,0.8835,0.8796,0.8825,0.8829,0.8775,0.8814,0.8812,0.8811,0.8815,0.8786,0.8821,0.8815,0.8865,0.889,0.8894,0.8905,0.8875,0.8983,0.8994,0.9004,0.9039,0.9053,0.8886,0.8886,0.8885,0.8885,0,0.8912,0.8933,0.8965,0.8963,0.8971,0.9005,0.8973,0.8986,0.896,0.8943,0.8982,0.8972,0.8983,0.8993,0.8969,0.9041,0.9025,0.899,0.8938,0.9025,0.9057,0.907,0.8893,0.8891,0.889,0.8889,0,0,0.9064,0.9039,0.9052,0.905,0.9037,0.9054,0.9086,0.9095,0.9107,0.9108,0.9135,0.916,0.9128,0.9132,0.9107,0.9135,0.9216,0.9097,0.9096,0.912,0.9296,0.9323,0.9339,0.9194,0.9196,0.9198,0.9297,0,0.916,0.9212,0.9178,0.9236,0.9255,0.9204,0.9232,0.9229,0.9214,0.923,0.9214,0.9233,0.9188,0.919,0.9216,0.9201,0.9251,0.9193,0.922,0.9222,0.9224,0.9356,0.9384,0.9478,0.9309,0.9311,0.9312,0,0.928,0.9284,0.9343,0.9327,0.9334,0.936,0.9366,0.9381,0.9376,0.9364,0.9368,0.9336,0.9368,0.9316,0.936,0.9322,0.9331,0.9325,0.9328,0.933,0.9273,0.9363,0.9507,0.9522,0.9332,0.933,0.9329,0,0.9386,0.9406,0.9444,0.9445,0.9426,0.9446,0.9439,0.9432,0.9439,0.9445,0.945,0.946,0.9466,0.9476,0.9448,0.9413,0.9497,0.9442,0.9489,0.949,0.951,0.9509,0.9659,0.9514,0.9514,0.9513,0.9513,0,0.9498,0.9536,0.9491,0.9515,0.9557,0.9519,0.9562,0.9551,0.9544,0.9566,0.9523,0.9545,0.9506,0.9525,0.9504,0.9544,0.9547,0.9539,0.9533,0.9543,0.9545,0.955,0.9543,0.9517,0.9516,0.9516,0.9515,0,0.9623,0.9595,0.9633,0.9612,0.9608,0.964,0.9623,0.9645,0.9627,0.9655,0.966,0.9632,0.9652,0.9624,0.9642,0.9627,0.9683,0.9667,0.9685,0.968,0.9729,0.9725,0.9888,0.9908,0.9749,0.9751,0.9752,0,0.9697,0.9725,0.9707,0.9718,0.9714,0.9732,0.9739,0.9703,0.9712,0.9709,0.9732,0.9747,0.9758,0.9791,0.9774,0.9787,0.9772,0.9828,0.9774,0.9783,0.9774,0.9773,0.9776,0.984,0.9842,0.9843,0.9844,0,0.9832,0.9816,0.9827,0.9834,0.9844,0.9848,0.9849,0.9861,0.9823,0.9836,0.9854,0.9863,0.9879,0.9896,0.9904,0.9899,0.9867,0.9861,0.9873,0.9884,0.9894,0.989,0.9716,0.9858,0.9857,0.9856,0.9855,0.9854,0.9934,0.9957,0.9948,0.9963,0.9959,0.9961,0.9981,0.9965,0.9979,0.9989,0.9967,0.9991,0.9986,0.9994,0.9993,1.0012,0.9988,1.0005,1.0009,1.0014,1.0022,0.989,1.0014,1.0013,1.0013,1.0012,1.0012,0,1.0068,1.0059,1.0073,1.0075,1.0087,1.0052,1.0052,1.0065,1.0086,1.0083,1.0094,1.0116,1.0131,1.0115,1.0128,1.0147,1.0132,1.0152,1.0151,1.015,1.0042,1.0031,1.0163,1.0163,1.0163,1.0163,1.0163,1.0163,1.0138,1.0176,1.0159,1.0195,1.0186,1.0208,1.0211,1.0213,1.0211,1.0237,1.0249,1.0237,1.023,1.0242,1.0255,1.025,1.0258,1.0283,1.0273,1.0173,1.0158,1.0144,1.0133,1.0285,1.0285,1.0379,1.038,1.0381]},{"header":{"parameterUnit":"m.s-1","parameterCategory":1,"la1":30.2991,"la2":30.254,"lo1":-89.0895,"lo2":-89.0444,"dy":0.0017,"dx":0.0017,"nx":28,"ny":28,"refTime":"2025-05-19T21:00:00:Z","depth":0,"parameterNumber":3,"parameterNumberName":"V-component_of_WINDS"},"data":[0,0,0,0,0,0,0,0,0,0,0,0,0,0,0,0,0,0,0,0,0,0,0,0,0,0,0,0,0,0,0,0,0,0,0,0,0,0,0,0,0,0,0,0,0,0,0,0,0,0,0,0,0,0,0,0,0,0,6.0101,6.0102,0,6.0226,6.0227,6.0229,6.0227,6.0226,6.0224,6.0223,6.0344,6.0348,6.0353,0,0,0,0,0,0,0,0,0,0,0,0,0,5.9855,5.9859,6.0101,6.0102,6.0104,6.0226,6.0227,6.0229,6.0228,6.0226,6.0224,6.0222,6.0342,6.0348,6.0353,0,0,0,0,0,0,0,0,0,0,0,0,0,5.9969,5.9861,6.0101,6.0118,6.0121,6.0225,6.0227,6.0229,6.0228,6.0226,6.0223,6.0221,6.034,6.0347,6.0354,6.0447,0,0,6.0376,6.0379,0,0,0,0,0,0,0,0,5.9962,5.9978,6.0114,6.0117,6.0121,6.0209,6.0185,6.0302,6.0229,6.0187,6.0223,6.022,6.03,6.031,6.0339,6.0453,6.0458,6.0376,6.0381,6.0384,6.0386,0,0,0,0,0,0,0,5.9954,5.9972,6.015,6.0116,6.012,6.0118,6.0131,6.0207,6.0256,6.0191,6.0191,6.0206,6.0301,6.0332,6.0342,6.046,6.0376,6.0383,6.0387,6.039,6.0655,6.0657,0,0,0,0,0,0,5.9944,5.9966,6.0146,6.0154,6.0034,6.0124,6.0139,6.0183,6.0255,6.0264,6.0208,6.0206,6.0321,6.0334,6.0346,6.046,6.0384,6.039,6.0395,6.0652,6.0655,6.0658,0,0,0,0,0,0,5.9938,5.996,6.0141,6.006,6.0083,6.0131,6.018,6.0186,6.0217,6.0268,6.0276,6.0231,6.032,6.0336,6.0422,6.0464,6.0394,6.04,6.0649,6.0653,6.0657,6.0687,0,0,0,0,0,0,5.9931,5.9958,5.9995,6.0061,6.0087,6.0217,6.0182,6.0191,6.023,6.0228,6.0292,6.03,6.0319,6.0412,6.0429,6.0472,6.0406,6.0645,6.0651,6.0655,6.0682,6.0692,6.0699,0,0,0,0,0,5.9923,5.9998,5.9997,6.0019,6.0135,6.022,6.0235,6.0257,6.0234,6.0271,6.0303,6.0298,6.0456,6.042,6.044,6.0486,6.0643,6.0649,6.0655,6.0679,6.069,6.0699,0,0,0,0,0,0,5.9933,6.0006,6.0007,6.0106,6.0157,6.0219,6.0267,6.0268,6.0325,6.0321,6.0344,6.0358,6.0444,6.0474,6.0433,6.0579,6.0546,6.0557,6.0557,6.0568,6.0577,6.0568,6.0412,0,0,0,0,0,5.9948,6.0012,6.0072,6.0153,6.0179,6.0218,6.0256,6.0269,6.0322,6.0343,6.0382,6.0431,6.0492,6.0532,6.0591,6.0686,6.07,6.0727,6.0736,6.0743,6.0751,6.0804,6.0816,6.0679,6.0679,6.0679,0,0,5.9977,6.0025,6.0064,6.0156,6.0197,6.0262,6.0236,6.0306,6.0353,6.0353,6.0437,6.0467,6.0524,6.0615,6.0657,6.0642,6.0792,6.0751,6.0756,6.0761,6.0811,6.0824,6.0836,6.0683,6.0682,6.0682,0,0,6.0063,6.0107,6.0179,6.0221,6.0285,6.0311,6.0328,6.0391,6.0411,6.0497,6.0498,6.0553,6.0658,6.0698,6.0732,6.0834,6.0831,6.0852,6.0897,6.0947,6.0958,6.0968,6.1004,6.1016,6.0861,6.0861,6.0861,0,6.0091,6.0191,6.0216,6.0286,6.0326,6.0331,6.0403,6.0442,6.052,6.0547,6.0529,6.0661,6.0699,6.08,6.0825,6.0852,6.0871,6.0845,6.0955,6.0965,6.0974,6.1009,6.1022,6.0863,6.0863,6.0863,6.0862,0,6.0222,6.029,6.0341,6.0419,6.0465,6.0535,6.0569,6.0612,6.0621,6.0648,6.0734,6.078,6.0849,6.0873,6.0882,6.0975,6.0964,6.095,6.0918,6.0989,6.1022,6.1035,6.0866,6.0865,6.0865,6.0864,0,0,6.0319,6.0411,6.0429,6.0464,6.0534,6.0587,6.0656,6.0726,6.0761,6.0815,6.0873,6.0962,6.095,6.0989,6.1001,6.1046,6.1123,6.1027,6.1028,6.1043,6.1228,6.1238,6.1253,6.1121,6.1124,6.1126,6.1223,0,6.0413,6.0541,6.0565,6.0675,6.0738,6.0743,6.0804,6.0852,6.0879,6.0934,6.0963,6.1026,6.1005,6.1029,6.1073,6.1104,6.116,6.1098,6.1174,6.1177,6.116,6.127,6.1281,6.1371,6.1236,6.1238,6.124,0,6.054,6.0599,6.0716,6.0778,6.0805,6.086,6.0925,6.0979,6.1033,6.1049,6.1093,6.11,6.1171,6.1135,6.1232,6.1189,6.1222,6.1242,6.1245,6.1253,6.1213,6.1281,6.14,6.1413,6.126,6.1259,6.1257,0,6.0599,6.0708,6.0792,6.0822,6.0896,6.0934,6.0966,6.1018,6.1058,6.1114,6.114,6.1202,6.1236,6.1283,6.1307,6.1279,6.1402,6.1368,6.1416,6.1416,6.1442,6.144,6.1568,6.1463,6.1463,6.1462,6.1462,0,6.0702,6.0773,6.082,6.0872,6.0951,6.0977,6.1054,6.1085,6.1131,6.1187,6.1194,6.1246,6.1274,6.133,6.1348,6.1426,6.1441,6.1455,6.1459,6.1454,6.1453,6.1476,6.147,6.1466,6.1465,6.1465,6.1464,0,6.0782,6.0816,6.0908,6.0971,6.0988,6.1044,6.1097,6.1146,6.1172,6.1243,6.1261,6.1303,6.1368,6.1397,6.1477,6.1489,6.1578,6.1577,6.156,6.1562,6.1608,6.1604,6.1755,6.1776,6.1658,6.1659,6.166,0,6.0846,6.0901,6.097,6.101,6.1044,6.1106,6.1148,6.1174,6.1216,6.1282,6.1323,6.1389,6.1444,6.1549,6.1584,6.1645,6.1646,6.1695,6.1655,6.1649,6.1647,6.1643,6.1649,6.1702,6.1704,6.1705,6.1705,0,6.0955,6.0969,6.1029,6.1096,6.1145,6.1198,6.125,6.1281,6.1315,6.1362,6.143,6.1473,6.1556,6.1621,6.1685,6.1715,6.1716,6.1718,6.1732,6.1728,6.1716,6.1723,6.158,6.1714,6.1713,6.1713,6.1712,6.1712,6.1028,6.1078,6.1135,6.1201,6.1243,6.1291,6.1341,6.1374,6.1433,6.1504,6.1515,6.1588,6.164,6.1725,6.1758,6.1814,6.1802,6.1822,6.1828,6.1833,6.1836,6.1707,6.1826,6.1825,6.1825,6.1825,6.1825,0,6.1138,6.1175,6.1236,6.1309,6.1361,6.1359,6.1416,6.1459,6.1524,6.1573,6.1627,6.1705,6.1769,6.181,6.1873,6.191,6.1912,6.1925,6.1923,6.193,6.1843,6.1824,6.1923,6.1923,6.1923,6.1923,6.1923,6.1923,6.1201,6.1285,6.1306,6.1409,6.1445,6.1518,6.1551,6.1594,6.1634,6.1722,6.1775,6.1802,6.1847,6.1914,6.1971,6.1981,6.2004,6.2019,6.2028,6.1946,6.1936,6.1926,6.1909,6.2024,6.2024,6.2111,6.2111,6.2112]}]]